timestamp,wind_dir_avg,wind_spd_avg,wind_spd_max_dir,wind_spd_gust,battery_voltage,lat,long
2022-06-13 00:04:00+00:00,323.0,1.18,298.0,1.49,13.21,47.59359,-54.27349
2022-06-13 00:14:01+00:00,15.0,2.34,20.0,3.15,12.57,47.59359,-54.27349
2022-06-13 00:24:01+00:00,27.0,5.4,26.0,5.83,12.57,47.59359,-54.27349
2022-06-13 00:34:01+00:00,315.0,0.01,34.0,0.0,12.57,47.59359,-54.27349
2022-06-13 00:44:01+00:00,35.0,5.27,34.0,5.34,12.57,47.59359,-54.27349
2022-06-13 00:54:01+00:00,315.0,0.01,40.0,0.0,12.57,47.59359,-54.27349
2022-06-13 01:04:01+00:00,73.0,4.74,79.0,5.57,12.57,47.59359,-54.27349
2022-06-13 01:14:01+00:00,113.0,3.11,119.0,4.37,12.41,47.59359,-54.27349
2022-06-13 01:24:01+00:00,102.0,2.8,97.0,4.51,12.41,47.59359,-54.27349
2022-06-13 01:34:01+00:00,82.0,2.7,81.0,3.6,12.41,47.59359,-54.27349
2022-06-13 01:44:01+00:00,78.0,2.84,53.0,4.0,12.41,47.59359,-54.27349
2022-06-13 01:54:01+00:00,79.0,2.33,57.0,3.81,12.41,47.59359,-54.27349
2022-06-13 02:04:01+00:00,85.0,2.74,82.0,3.39,12.41,47.59359,-54.27349
2022-06-13 02:14:00+00:00,75.0,2.79,77.0,3.51,12.41,47.59359,-54.27349
2022-06-13 02:24:00+00:00,315.0,0.01,65.0,0.0,12.41,47.59359,-54.27349
2022-06-13 02:34:00+00:00,315.0,0.01,69.0,0.0,12.41,47.59359,-54.27349
2022-06-13 02:44:00+00:00,45.0,4.08,47.0,4.23,12.41,47.59359,-54.27349
2022-06-13 02:54:00+00:00,39.0,4.39,40.0,4.6,12.41,47.59359,-54.27349
2022-06-13 03:04:00+00:00,41.0,3.46,43.0,3.7,12.41,47.59359,-54.27349
2022-06-13 03:14:00+00:00,40.0,3.87,40.0,4.12,12.41,47.59359,-54.27349
2022-06-13 03:24:00+00:00,315.0,0.01,36.0,0.0,12.41,47.59359,-54.27349
2022-06-13 03:34:00+00:00,315.0,0.01,44.0,0.0,12.41,47.59359,-54.27349
2022-06-13 03:44:00+00:00,37.0,4.39,37.0,4.41,12.41,47.59359,-54.27349
2022-06-13 03:54:00+00:00,315.0,0.01,39.0,0.0,12.41,47.59359,-54.27349
2022-06-13 04:04:00+00:00,51.0,5.56,51.0,5.57,12.41,47.59359,-54.27349
2022-06-13 04:14:01+00:00,48.0,6.47,48.0,6.48,12.33,47.59359,-54.27349
2022-06-13 04:24:01+00:00,45.0,6.95,45.0,6.96,12.33,47.59359,-54.27349
2022-06-13 04:34:01+00:00,33.0,5.24,33.0,5.26,12.33,47.59359,-54.27349
2022-06-13 04:44:01+00:00,315.0,0.01,37.0,0.0,12.33,47.59359,-54.27349
2022-06-13 04:54:01+00:00,315.0,0.01,36.0,0.0,12.33,47.59359,-54.27349
2022-06-13 05:04:01+00:00,315.0,0.01,36.0,0.0,12.33,47.59359,-54.27349
2022-06-13 05:14:01+00:00,53.0,6.23,51.0,6.55,12.41,47.59359,-54.27349
2022-06-13 05:24:01+00:00,53.0,6.25,49.0,6.72,12.41,47.59359,-54.27349
2022-06-13 05:34:01+00:00,55.0,5.99,53.0,6.2,12.41,47.59359,-54.27349
2022-06-13 05:44:01+00:00,53.0,6.36,51.0,6.99,12.41,47.59359,-54.27349
2022-06-13 05:54:01+00:00,53.0,6.2,49.0,6.58,12.41,47.59359,-54.27349
2022-06-13 06:04:01+00:00,315.0,0.01,59.0,0.0,12.41,47.59359,-54.27349
2022-06-13 06:14:00+00:00,315.0,0.01,54.0,0.0,12.33,47.59359,-54.27349
2022-06-13 06:24:00+00:00,57.0,5.86,58.0,6.06,12.33,47.59359,-54.27349
2022-06-13 06:34:00+00:00,58.0,5.67,53.0,6.21,12.33,47.59359,-54.27349
2022-06-13 06:44:00+00:00,70.0,5.11,68.0,5.37,12.33,47.59359,-54.27349
2022-06-13 06:54:00+00:00,67.0,5.4,67.0,5.88,12.33,47.59359,-54.27349
2022-06-13 07:04:00+00:00,58.0,5.19,56.0,5.78,12.33,47.59359,-54.27349
2022-06-13 07:14:00+00:00,51.0,5.49,48.0,6.09,12.25,47.59359,-54.27349
2022-06-13 07:24:00+00:00,50.0,6.61,46.0,7.5,12.25,47.59359,-54.27349
2022-06-13 07:34:00+00:00,50.0,6.42,54.0,7.02,12.25,47.59359,-54.27349
2022-06-13 07:44:00+00:00,46.0,6.57,50.0,7.22,12.25,47.59359,-54.27349
2022-06-13 07:54:00+00:00,45.0,6.34,43.0,7.35,12.25,47.59359,-54.27349
2022-06-13 08:04:00+00:00,54.0,5.7,50.0,6.31,12.25,47.59359,-54.27349
2022-06-13 08:14:01+00:00,59.0,5.35,60.0,6.16,12.17,47.59359,-54.27349
2022-06-13 08:24:01+00:00,49.0,5.42,51.0,6.36,12.17,47.59359,-54.27349
2022-06-13 08:34:01+00:00,53.0,5.28,53.0,5.88,12.17,47.59359,-54.27349
2022-06-13 08:44:01+00:00,50.0,5.11,52.0,6.17,12.17,47.59359,-54.27349
2022-06-13 08:54:01+00:00,54.0,4.55,57.0,5.98,12.17,47.59359,-54.27349
2022-06-13 09:04:01+00:00,61.0,4.7,60.0,5.27,12.17,47.59359,-54.27349
2022-06-13 09:14:00+00:00,57.0,4.33,61.0,5.69,12.65,47.59359,-54.27349
2022-06-13 09:24:00+00:00,52.0,4.63,58.0,6.06,12.65,47.59359,-54.27349
2022-06-13 09:34:00+00:00,59.0,6.94,57.0,7.55,12.65,47.59359,-54.27349
2022-06-13 09:44:00+00:00,55.0,5.63,63.0,7.13,12.65,47.59359,-54.27349
2022-06-13 09:54:00+00:00,65.0,5.23,64.0,7.26,12.65,47.59359,-54.27349
2022-06-13 10:04:00+00:00,46.0,5.07,44.0,6.08,12.65,47.59359,-54.27349
2022-06-13 10:14:00+00:00,51.0,4.74,60.0,7.18,13.37,47.59359,-54.27349
2022-06-13 10:24:00+00:00,51.0,5.0,61.0,6.84,13.37,47.59359,-54.27349
2022-06-13 10:34:00+00:00,45.0,4.7,44.0,5.44,13.37,47.59359,-54.27349
2022-06-13 10:44:00+00:00,46.0,5.09,49.0,5.97,13.37,47.59359,-54.27349
2022-06-13 10:54:00+00:00,49.0,5.08,60.0,7.22,13.37,47.59359,-54.27349
2022-06-13 11:04:00+00:00,57.0,6.78,58.0,7.28,13.37,47.59359,-54.27349
2022-06-13 11:14:00+00:00,63.0,6.48,64.0,7.03,13.53,47.59359,-54.27349
2022-06-13 11:24:00+00:00,59.0,6.52,58.0,7.27,13.53,47.59359,-54.27349
2022-06-13 11:34:00+00:00,53.0,6.78,52.0,7.38,13.53,47.59359,-54.27349
2022-06-13 11:44:00+00:00,49.0,6.52,53.0,7.38,13.53,47.59359,-54.27349
2022-06-13 11:54:00+00:00,55.0,7.12,53.0,7.61,13.53,47.59359,-54.27349
2022-06-13 12:04:00+00:00,55.0,6.74,54.0,7.38,13.53,47.59359,-54.27349
2022-06-13 12:14:00+00:00,51.0,6.94,56.0,7.54,13.84,47.59359,-54.27349
2022-06-13 12:24:00+00:00,54.0,6.95,55.0,7.51,13.84,47.59359,-54.27349
2022-06-13 12:34:00+00:00,30.0,3.46,56.0,5.25,13.84,47.59359,-54.27349
2022-06-13 12:44:00+00:00,30.0,4.01,57.0,6.08,13.84,47.59359,-54.27349
2022-06-13 12:54:00+00:00,30.0,3.75,54.0,5.66,13.84,47.59359,-54.27349
2022-06-13 13:04:00+00:00,52.0,5.35,57.0,6.54,13.84,47.59359,-54.27349
2022-06-13 13:14:00+00:00,54.0,5.09,59.0,6.2,14.32,47.59359,-54.27349
2022-06-13 13:24:00+00:00,59.0,5.34,62.0,6.25,14.32,47.59359,-54.27349
2022-06-13 13:34:00+00:00,59.0,6.02,63.0,6.49,14.32,47.59359,-54.27349
2022-06-13 13:44:00+00:00,43.0,4.34,56.0,5.75,14.32,47.59359,-54.27349
2022-06-13 13:54:00+00:00,18.0,2.57,56.0,4.4,14.32,47.59359,-54.27349
2022-06-13 14:04:00+00:00,11.0,3.65,11.0,4.18,14.32,47.59359,-54.27349
2022-06-13 14:14:00+00:00,12.0,3.53,20.0,3.7,14.32,47.59359,-54.27349
2022-06-13 14:24:00+00:00,3.0,3.23,359.0,3.85,14.32,47.59359,-54.27349
2022-06-13 14:34:00+00:00,3.0,3.33,3.0,3.77,14.32,47.59359,-54.27349
2022-06-13 14:44:00+00:00,357.0,3.74,359.0,4.08,14.32,47.59359,-54.27349
2022-06-13 14:54:00+00:00,12.0,4.01,27.0,4.87,14.32,47.59359,-54.27349
2022-06-13 15:04:00+00:00,13.0,4.26,28.0,4.91,14.32,47.59359,-54.27349
2022-06-13 15:14:00+00:00,16.0,4.29,18.0,4.7,14.32,47.59359,-54.27349
2022-06-13 15:24:00+00:00,16.0,4.73,15.0,5.03,14.32,47.59359,-54.27349
2022-06-13 15:34:00+00:00,15.0,4.66,14.0,5.28,14.32,47.59359,-54.27349
2022-06-13 15:44:00+00:00,8.0,4.05,358.0,4.73,14.32,47.59359,-54.27349
2022-06-13 15:54:00+00:00,17.0,3.97,24.0,4.81,14.32,47.59359,-54.27349
2022-06-13 16:04:00+00:00,21.0,4.54,18.0,5.04,14.32,47.59359,-54.27349
2022-06-13 16:14:01+00:00,21.0,4.64,23.0,5.07,14.32,47.59359,-54.27349
2022-06-13 16:24:01+00:00,26.0,3.65,22.0,4.29,14.32,47.59359,-54.27349
2022-06-13 16:34:01+00:00,21.0,4.03,22.0,4.44,14.32,47.59359,-54.27349
2022-06-13 16:44:01+00:00,23.0,4.1,25.0,4.58,14.32,47.59359,-54.27349
2022-06-13 16:54:01+00:00,29.0,3.94,30.0,4.49,14.32,47.59359,-54.27349
2022-06-13 17:04:01+00:00,28.0,3.02,35.0,3.57,14.32,47.59359,-54.27349
2022-06-13 17:14:01+00:00,194.0,4.66,192.0,6.1,14.32,47.59359,-54.27349
2022-06-13 17:24:01+00:00,217.0,4.91,225.0,5.73,14.32,47.59359,-54.27349
2022-06-13 17:34:01+00:00,221.0,6.95,230.0,8.37,14.32,47.59359,-54.27349
2022-06-13 17:44:01+00:00,217.0,6.42,224.0,7.48,14.32,47.59359,-54.27349
2022-06-13 17:54:01+00:00,220.0,5.85,231.0,7.25,14.32,47.59359,-54.27349
2022-06-13 18:04:01+00:00,220.0,5.46,236.0,7.88,14.32,47.59359,-54.27349
2022-06-13 18:14:00+00:00,223.0,6.76,230.0,8.12,13.76,47.59359,-54.27349
2022-06-13 18:24:00+00:00,228.0,6.88,233.0,8.05,13.76,47.59359,-54.27349
2022-06-13 18:34:00+00:00,227.0,7.53,226.0,8.55,13.76,47.59359,-54.27349
2022-06-13 18:44:00+00:00,230.0,7.55,231.0,8.33,13.76,47.59359,-54.27349
2022-06-13 18:54:00+00:00,232.0,7.3,235.0,7.77,13.76,47.59359,-54.27349
2022-06-13 19:04:00+00:00,227.0,6.03,229.0,6.8,13.76,47.59359,-54.27349
2022-06-13 19:14:00+00:00,229.0,7.04,228.0,7.47,13.68,47.59359,-54.27349
2022-06-13 19:24:00+00:00,232.0,7.53,233.0,7.94,13.68,47.59359,-54.27349
2022-06-13 19:34:00+00:00,228.0,7.21,226.0,7.76,13.68,47.59359,-54.27349
2022-06-13 19:44:00+00:00,227.0,6.37,233.0,7.07,13.68,47.59359,-54.27349
2022-06-13 19:54:00+00:00,226.0,7.13,227.0,7.96,13.68,47.59359,-54.27349
2022-06-13 20:04:00+00:00,227.0,7.6,227.0,8.38,13.68,47.59359,-54.27349
2022-06-13 20:14:00+00:00,228.0,7.36,228.0,7.94,13.76,47.59359,-54.27349
2022-06-13 20:24:00+00:00,226.0,7.12,231.0,7.89,13.76,47.59359,-54.27349
2022-06-13 20:34:00+00:00,226.0,7.57,228.0,8.52,13.76,47.59359,-54.27349
2022-06-13 20:44:00+00:00,217.0,6.46,223.0,7.43,13.76,47.59359,-54.27349
2022-06-13 20:54:00+00:00,211.0,6.28,209.0,7.12,13.76,47.59359,-54.27349
2022-06-13 21:04:00+00:00,211.0,5.32,209.0,5.65,13.76,47.59359,-54.27349
2022-06-13 21:14:00+00:00,216.0,4.72,216.0,5.37,13.68,47.59359,-54.27349
2022-06-13 21:24:00+00:00,210.0,4.93,212.0,5.22,13.68,47.59359,-54.27349
2022-06-13 21:34:00+00:00,210.0,5.51,208.0,5.97,13.68,47.59359,-54.27349
2022-06-13 21:44:00+00:00,213.0,5.21,215.0,5.62,13.68,47.59359,-54.27349
2022-06-13 21:54:00+00:00,208.0,5.42,206.0,5.94,13.68,47.59359,-54.27349
2022-06-13 22:04:00+00:00,207.0,5.95,205.0,6.83,13.68,47.59359,-54.27349
2022-06-13 22:14:00+00:00,207.0,5.05,210.0,5.59,13.53,47.59359,-54.27349
2022-06-13 22:24:00+00:00,211.0,5.98,210.0,6.4,13.53,47.59359,-54.27349
2022-06-13 22:34:00+00:00,208.0,4.84,209.0,5.29,13.53,47.59359,-54.27349
2022-06-13 22:44:00+00:00,203.0,4.87,207.0,5.31,13.53,47.59359,-54.27349
2022-06-13 22:54:00+00:00,201.0,5.37,204.0,6.08,13.53,47.59359,-54.27349
2022-06-13 23:04:00+00:00,199.0,5.8,200.0,6.48,13.53,47.59359,-54.27349
2022-06-13 23:14:01+00:00,202.0,5.68,203.0,6.51,13.21,47.59359,-54.27349
2022-06-13 23:24:01+00:00,202.0,5.81,203.0,6.38,13.21,47.59359,-54.27349
2022-06-13 23:34:01+00:00,210.0,5.77,210.0,6.15,13.21,47.59359,-54.27349
2022-06-13 23:44:01+00:00,214.0,5.1,215.0,5.67,13.21,47.59359,-54.27349
2022-06-13 23:54:01+00:00,214.0,4.89,216.0,5.44,13.21,47.59359,-54.27349
